Regional Weather Roundup
Issued by NWS Tiyan, Guam

Home | Current Version | Previous Version | Text Only | Print | Product List | Glossary On
Versions: 1 2 3 4 5 6 7 8 9 10 11 12 13 14 15 16 17 18 19 20 21 22 23 24 25 26 27 28 29 30 31 32 33 34 35 36 37 38 39 40 41 42 43 44 45 46 47 48 49 50
000
ASGM40 PGUM 050014
RWRGUM
WEATHER ROUNDUP FOR THE MARIANAS
NATIONAL WEATHER SERVICE TIYAN GU
1000 AM CHST WED AUG 05 2015

GUZ001>004-050100-
MARIANA ISLANDS-

CITY           SKY/WX    TMP DP  RH WIND       PRES   REMARKS
GUAM AIRPORT   MOSUNNY   82  77  83 SW16      29.71F HX  91
ANDERSEN AFB   NOT AVBL
ROTA AIRPORT   LGT RAIN  77  75  94 SW9G17    29.72  FOG
TINIAN AP      NOT AVBL
SAIPAN AP      CLOUDY    84  81  89 MISG      29.70R HX  98

$$



USA.gov is the U.S. government's official web portal to all federal, state and local government web resources and services.